Wind_Speed
19 19 19 19 19 20 20 20 21 20 19 19 20 20 19 18 16 16 15 14 13 14 15 15 16 16 16 16 16 16 16 17 18 19 18 18 17 17 17 17 17 17 17 16
21 21 21 20 20 21 21 21 21 20 20 20 20 19 17 17 16 16 14 13 13 14 14 15 16 16 16 16 16 16 16 17 18 18 17 17 17 18 18 18 18 17 17 16
23 22 23 22 21 20 20 20 21 20 19 19 18 17 16 16 15 16 15 14 14 14 15 16 16 17 16 16 16 16 17 17 17 17 17 17 18 19 18 18 18 17 17 16
24 23 24 22 21 21 21 20 20 20 19 19 17 16 15 15 15 15 15 14 15 16 15 15 15 15 15 15 16 16 17 17 17 18 18 19 19 19 19 18 17 17 17 16
25 25 24 22 22 22 22 21 20 20 20 19 18 17 16 15 15 15 15 14 15 15 15 15 15 14 15 15 15 15 16 17 17 17 17 18 18 18 18 18 17 17 16 16
27 27 26 24 23 23 23 22 21 21 20 19 18 17 16 16 16 16 16 15 14 14 15 15 15 14 14 14 15 15 15 16 16 16 17 17 18 19 19 18 17 17 16 17
28 28 27 25 24 24 24 23 22 21 20 19 19 18 17 16 16 16 16 15 15 15 16 15 14 14 14 14 14 14 14 15 15 16 16 17 18 18 18 18 17 17 17 17
29 29 29 27 26 25 24 24 23 22 21 21 20 20 19 18 17 17 17 16 17 17 16 16 14 14 14 14 13 14 14 14 15 16 17 17 17 17 17 16 17 17 17 18
31 30 30 30 28 27 26 26 26 25 23 22 21 20 19 19 18 18 17 17 18 18 16 16 15 14 14 14 13 13 14 15 16 16 17 16 16 16 15 16 16 17 18 18
32 32 31 31 29 28 28 27 27 25 24 23 21 21 20 19 19 19 19 19 19 18 17 17 16 15 15 14 14 14 14 15 15 16 16 16 16 15 15 15 16 17 17 18
33 33 32 31 31 30 29 29 27 26 25 24 23 22 21 21 22 21 21 20 20 19 18 17 16 15 15 15 14 13 13 14 14 15 15 16 15 15 15 15 16 17 17 18
32 32 33 32 31 31 30 29 27 26 26 25 25 24 24 23 22 22 21 21 20 19 18 17 16 15 15 15 14 13 13 13 14 14 14 15 14 14 14 15 16 16 17 17
31 31 32 32 32 31 30 29 29 28 27 26 26 25 25 24 23 22 22 22 21 20 19 18 17 16 16 15 15 14 13 14 14 14 14 14 13 13 14 15 16 17 17 17
31 31 30 30 31 31 31 30 30 30 29 27 27 27 26 26 25 24 23 23 22 21 20 19 18 16 16 16 15 14 14 14 14 14 14 14 13 13 14 15 15 16 16 17
33 33 32 31 30 31 31 31 30 30 29 29 28 27 26 25 25 25 24 23 22 21 20 19 18 17 17 16 16 15 15 14 14 14 14 13 13 14 14 15 16 16 17 17
32 32 31 30 30 30 30 30 29 29 29 28 28 27 27 25 25 25 24 23 22 21 21 20 19 17 17 16 16 16 16 15 15 15 15 14 13 14 15 15 16 16 16 16
31 31 30 29 30 30 31 31 30 29 29 28 28 27 26 25 25 25 24 24 22 22 22 21 20 19 18 18 17 17 17 17 17 16 16 15 14 15 15 16 16 16 16 16
29 29 30 29 30 29 30 30 30 29 28 28 27 27 26 25 25 24 24 23 22 22 22 21 20 20 19 19 19 18 18 18 18 17 16 15 15 15 16 16 16 16 16 16
28 29 29 30 29 29 28 29 28 28 27 27 26 25 25 25 24 24 23 22 21 21 21 21 21 21 21 20 19 19 18 18 18 17 17 17 16 16 16 17 16 16 16 16
28 29 29 30 30 29 29 28 28 27 27 26 26 26 24 23 22 22 22 22 22 22 21 22 21 21 21 20 20 19 18 18 18 18 18 18 17 17 17 17 17 17 17 16
27 27 27 28 28 28 28 28 27 27 26 26 25 25 25 24 23 22 22 22 22 22 22 22 21 21 21 21 20 20 19 19 18 18 17 17 17 17 17 17 17 17 16 15
26 26 27 27 27 26 27 27 27 27 26 26 25 25 24 23 23 23 22 22 22 22 22 22 21 21 20 20 20 19 18 18 18 18 18 17 17 17 17 17 16 15 15 15
27 27 27 27 27 26 26 25 26 27 27 26 25 25 24 23 23 23 23 22 22 22 22 22 21 21 20 20 20 19 19 19 18 18 18 18 17 17 17 17 16 15 14 13
28 28 27 27 27 27 26 27 28 28 28 27 26 26 25 24 23 22 22 22 22 22 22 21 20 20 20 20 19 19 19 18 18 18 18 17 16 16 16 15 15 14 13 13
27 27 27 27 27 26 26 27 27 26 25 24 24 24 24 24 24 23 22 22 22 22 21 20 19 19 19 19 19 19 18 18 18 18 18 17 16 15 15 14 14 13 12 12
25 25 26 27 26 26 27 27 27 26 26 25 24 23 23 23 24 23 23 22 22 21 20 20 19 19 19 19 19 18 18 18 18 18 17 16 15 15 14 14 13 12 12 12
25 25 25 25 25 25 25 25 25 25 25 25 24 24 24 24 24 23 23 23 22 22 21 21 20 20 20 19 19 18 18 18 17 17 16 16 15 15 14 13 13 13 13 13
Wind_Direction
271 273 274 276 278 283 288 292 295 299 302 306 309 311 314 316 319 321 322 322 322 325 329 333 335 338 339 337 339 341 344 346 349 351 353 354 354 350 348 347 345 344 342 340
269 271 272 274 278 283 285 288 290 293 297 303 307 308 310 312 315 317 319 321 323 325 327 330 333 336 339 340 341 343 344 347 350 352 352 353 353 352 350 349 349 347 345 343
269 270 271 273 279 282 285 287 288 290 296 301 304 305 306 307 309 312 311 313 318 321 324 328 331 334 337 337 341 343 345 348 351 352 352 352 352 353 352 349 348 347 348 349
268 269 269 275 277 279 282 284 286 287 291 296 301 302 301 300 302 304 305 307 310 315 319 323 329 333 335 338 341 345 346 347 347 348 349 350 351 352 352 352 351 352 354 353
269 268 269 272 274 276 279 280 283 286 290 293 297 298 297 296 295 295 297 299 306 313 318 321 325 328 332 336 339 342 345 347 348 348 349 350 352 352 353 353 352 353 355 355
268 269 270 273 274 275 277 278 282 285 288 289 291 292 293 292 292 291 293 297 303 309 314 317 320 322 327 331 333 337 342 345 349 350 349 350 351 353 354 354 354 354 353 352
266 268 270 272 273 275 276 278 280 282 283 285 288 290 288 288 289 290 291 295 300 304 307 308 310 314 319 323 328 334 338 341 343 346 348 348 349 350 353 356 357 356 353 352
263 264 265 269 271 272 274 274 277 279 280 283 286 287 286 284 285 289 291 292 297 299 301 302 303 308 312 313 319 327 333 336 339 340 342 345 346 349 352 356 357 356 355 353
261 262 263 264 267 268 269 270 273 277 279 280 282 283 284 283 283 284 286 289 293 296 298 300 300 302 307 310 314 320 325 329 331 334 337 340 343 346 350 352 352 352 352 352
260 260 261 262 263 264 265 268 272 273 276 277 278 280 281 281 281 283 285 287 290 294 298 298 299 299 303 308 313 316 319 323 327 330 333 335 339 343 346 348 349 349 350 351
260 260 260 260 261 263 265 269 272 272 274 275 276 277 280 281 282 283 283 283 285 290 293 293 294 296 299 303 307 311 315 319 324 328 330 332 334 337 342 346 348 348 350 351
259 258 258 259 260 262 263 265 267 268 271 273 275 276 278 281 282 281 280 281 282 284 285 287 289 293 295 295 302 306 311 315 318 322 325 329 333 336 339 343 346 346 347 348
259 256 258 259 259 260 262 265 265 268 269 270 271 273 275 277 278 280 281 280 279 279 279 281 284 289 290 290 296 302 306 310 314 316 319 325 329 334 337 340 342 344 345 346
256 255 256 258 260 261 263 265 266 268 269 271 272 272 272 274 276 276 278 277 276 275 275 276 280 282 285 287 291 295 299 303 309 312 317 320 323 326 330 334 337 339 341 342
256 255 255 256 259 261 263 264 266 268 269 270 272 273 273 274 274 274 273 272 271 271 270 271 273 276 281 285 289 291 293 297 303 307 313 316 317 321 324 328 332 335 338 340
255 255 256 255 257 261 263 264 265 266 268 269 271 273 274 273 272 272 270 267 266 265 265 266 268 271 275 280 284 286 287 292 298 302 307 309 311 318 322 325 328 331 333 336
255 254 254 253 255 258 261 263 264 266 267 268 270 271 271 271 270 268 266 265 264 264 264 264 264 266 270 273 277 281 284 288 293 297 300 301 305 312 318 322 324 327 328 331
256 254 254 252 252 255 259 261 262 264 265 266 267 268 268 267 266 266 264 262 262 261 261 260 261 265 268 272 274 278 282 285 289 293 294 295 297 304 310 315 319 322 324 326
257 255 252 250 251 253 256 258 259 261 262 263 265 266 266 266 265 264 261 259 258 256 257 258 260 263 267 271 274 276 279 282 285 287 289 290 292 298 303 307 311 316 319 321
255 255 254 252 253 254 256 257 258 259 260 262 263 264 263 262 262 261 258 256 257 256 256 259 260 262 266 269 271 273 276 278 280 283 285 287 289 294 299 302 306 310 314 317
253 252 251 252 253 255 255 255 256 258 258 260 261 263 260 258 259 258 256 257 257 256 255 258 260 262 266 269 270 271 273 276 278 279 281 284 287 292 296 298 301 306 310 313
251 250 250 251 252 253 253 254 254 255 256 257 259 260 259 256 255 254 254 255 255 254 254 256 259 263 266 268 269 270 271 274 276 277 279 283 286 291 295 297 299 302 307 311
251 251 251 251 252 251 251 254 255 256 257 258 256 255 254 253 253 251 251 252 253 254 257 257 258 261 263 264 266 267 268 271 274 276 280 284 287 290 294 296 297 300 303 307
252 252 252 251 251 250 251 252 254 255 257 257 255 253 250 249 249 249 248 249 251 253 255 257 258 260 262 262 264 266 267 269 272 275 280 283 286 289 293 295 297 299 301 303
254 254 254 253 251 250 251 251 252 252 252 253 252 250 248 247 247 247 248 249 250 253 256 257 258 258 259 260 261 264 265 267 271 274 278 280 282 287 291 294 294 295 299 302
255 256 255 252 250 249 250 250 250 250 252 252 250 250 249 249 249 248 249 250 251 252 253 253 255 258 259 260 260 261 264 266 269 270 273 276 279 284 288 290 288 289 293 299
253 253 252 250 249 249 249 250 250 251 252 252 252 250 249 249 248 249 250 251 251 252 253 254 256 259 260 259 259 261 262 264 267 268 270 273 277 281 283 283 282 284 288 294
Height
5820 5820 5819 5819 5818 5817 5816 5815 5813 5812 5810 5808 5806 5804 5801 5798 5796 5793 5790 5788 5785 5783 5780 5778 5774 5771 5768 5765 5762 5759 5756 5753 5749 5745 5742 5738 5735 5732 5729 5725 5721 5718 5715 5711
5815 5815 5814 5814 5814 5813 5812 5810 5809 5808 5807 5805 5802 5800 5798 5796 5793 5791 5788 5786 5784 5781 5779 5776 5773 5770 5767 5764 5761 5758 5755 5752 5748 5745 5741 5738 5734 5731 5727 5724 5720 5717 5713 5710
5810 5809 5808 5809 5809 5808 5807 5806 5805 5803 5803 5801 5798 5796 5795 5793 5791 5789 5786 5784 5782 5780 5777 5774 5771 5768 5766 5763 5760 5757 5754 5750 5747 5744 5740 5737 5734 5730 5727 5723 5719 5716 5712 5709
5804 5804 5803 5806 5804 5803 5802 5801 5800 5799 5798 5796 5795 5793 5791 5790 5788 5786 5784 5782 5780 5777 5775 5772 5770 5767 5764 5762 5759 5756 5753 5749 5746 5743 5740 5737 5733 5730 5726 5722 5718 5715 5712 5708
5798 5797 5797 5799 5799 5798 5797 5796 5796 5794 5793 5792 5790 5789 5788 5786 5785 5783 5781 5779 5777 5775 5773 5771 5768 5765 5763 5760 5757 5755 5752 5749 5745 5742 5739 5736 5732 5729 5725 5721 5718 5715 5712 5708
5791 5790 5790 5794 5793 5792 5792 5791 5791 5789 5788 5787 5786 5785 5785 5783 5781 5779 5778 5776 5774 5772 5770 5768 5766 5763 5761 5759 5756 5753 5751 5748 5745 5741 5738 5735 5732 5728 5725 5721 5718 5714 5711 5708
5783 5783 5783 5786 5786 5786 5786 5786 5785 5784 5783 5782 5781 5781 5780 5778 5777 5775 5774 5773 5771 5769 5767 5765 5763 5761 5759 5757 5754 5752 5749 5747 5744 5741 5738 5735 5731 5728 5724 5721 5717 5714 5711 5708
5776 5776 5779 5779 5779 5779 5779 5779 5778 5777 5777 5776 5776 5775 5774 5773 5772 5771 5770 5769 5767 5766 5764 5762 5760 5758 5756 5754 5752 5750 5747 5745 5743 5740 5737 5734 5731 5727 5724 5721 5718 5714 5711 5707
5769 5771 5770 5771 5771 5771 5771 5771 5771 5771 5771 5770 5770 5769 5768 5768 5767 5767 5766 5764 5763 5761 5760 5758 5756 5755 5753 5751 5749 5747 5745 5743 5741 5738 5735 5732 5729 5726 5723 5720 5717 5714 5710 5707
5759 5761 5761 5762 5763 5763 5763 5764 5764 5764 5764 5764 5764 5763 5763 5762 5762 5761 5760 5759 5758 5757 5756 5754 5753 5751 5750 5748 5747 5745 5743 5741 5738 5736 5733 5730 5728 5725 5722 5719 5716 5713 5710 5706
5749 5751 5752 5753 5754 5755 5756 5756 5757 5757 5757 5757 5757 5757 5756 5756 5756 5755 5755 5754 5753 5752 5751 5750 5749 5747 5746 5745 5743 5741 5740 5738 5736 5733 5731 5728 5726 5723 5721 5718 5715 5712 5708 5705
5740 5742 5743 5745 5745 5746 5747 5748 5749 5749 5750 5750 5750 5750 5750 5749 5749 5749 5748 5748 5747 5747 5746 5746 5744 5743 5742 5741 5740 5738 5737 5735 5733 5731 5729 5726 5724 5722 5719 5716 5713 5710 5706 5703
5730 5732 5733 5735 5736 5737 5738 5739 5740 5741 5742 5742 5742 5742 5742 5742 5742 5742 5742 5741 5741 5741 5741 5740 5740 5739 5738 5737 5736 5734 5733 5732 5730 5728 5726 5724 5722 5720 5717 5715 5711 5708 5705 5701
5720 5722 5724 5725 5727 5728 5730 5731 5732 5733 5733 5734 5734 5734 5734 5734 5734 5735 5735 5734 5734 5735 5735 5735 5734 5734 5733 5732 5732 5731 5730 5728 5727 5726 5724 5722 5720 5717 5715 5712 5710 5706 5703 5699
5710 5712 5714 5716 5718 5719 5721 5722 5723 5724 5725 5725 5726 5726 5726 5726 5726 5727 5727 5727 5728 5728 5728 5729 5729 5729 5728 5728 5727 5727 5726 5725 5724 5722 5720 5719 5717 5715 5712 5710 5707 5704 5701 5697
5700 5702 5704 5707 5709 5711 5712 5713 5714 5715 5716 5717 5717 5718 5718 5718 5718 5719 5719 5720 5721 5721 5722 5722 5723 5723 5723 5723 5723 5722 5721 5720 5720 5718 5717 5715 5714 5712 5709 5707 5704 5701 5698 5695
5691 5694 5696 5698 5700 5701 5702 5704 5705 5706 5707 5708 5709 5709 5710 5710 5711 5711 5711 5712 5713 5714 5715 5716 5717 5717 5718 5718 5718 5717 5717 5716 5715 5714 5713 5711 5710 5708 5706 5703 5701 5698 5695 5692
5682 5684 5687 5689 5690 5692 5693 5695 5696 5697 5699 5699 5700 5701 5702 5702 5703 5703 5704 5705 5706 5708 5709 5709 5710 5711 5711 5712 5712 5712 5711 5711 5710 5709 5708 5707 5706 5704 5702 5700 5697 5694 5692 5689
5673 5675 5677 5679 5681 5683 5684 5686 5687 5689 5690 5691 5692 5693 5693 5694 5695 5696 5697 5698 5699 5700 5702 5702 5703 5704 5705 5705 5705 5705 5705 5705 5704 5704 5703 5702 5701 5699 5697 5695 5693 5690 5688 5685
5665 5667 5668 5670 5672 5674 5675 5677 5679 5680 5681 5683 5684 5685 5686 5687 5688 5689 5690 5691 5692 5693 5694 5695 5696 5697 5698 5698 5699 5699 5699 5699 5698 5698 5697 5697 5695 5694 5692 5690 5688 5686 5684 5681
5657 5659 5660 5662 5664 5665 5667 5669 5670 5672 5673 5675 5676 5677 5678 5679 5681 5682 5683 5684 5685 5686 5687 5688 5689 5691 5691 5692 5692 5692 5692 5692 5692 5692 5692 5691 5690 5689 5687 5685 5683 5681 5679 5677
5649 5650 5652 5654 5656 5657 5659 5660 5662 5663 5665 5667 5668 5669 5670 5672 5673 5674 5676 5677 5678 5679 5680 5681 5683 5684 5684 5685 5686 5686 5686 5686 5686 5686 5686 5685 5684 5683 5681 5680 5678 5676 5674 5672
5641 5642 5644 5646 5648 5649 5651 5652 5654 5655 5656 5658 5659 5661 5662 5664 5665 5667 5668 5670 5671 5672 5673 5675 5676 5677 5677 5678 5679 5680 5680 5680 5680 5680 5680 5679 5678 5677 5676 5674 5672 5671 5669 5668
5633 5634 5636 5638 5639 5641 5643 5645 5646 5647 5648 5650 5651 5652 5654 5656 5658 5659 5661 5663 5664 5665 5666 5668 5669 5670 5671 5671 5672 5673 5673 5674 5674 5674 5674 5673 5672 5671 5670 5669 5667 5666 5665 5664
5625 5627 5628 5630 5631 5633 5635 5637 5638 5639 5641 5642 5643 5645 5646 5648 5650 5652 5653 5655 5657 5658 5660 5661 5662 5663 5664 5665 5666 5666 5667 5667 5668 5668 5667 5667 5666 5665 5664 5664 5663 5662 5661 5660
5617 5618 5620 5622 5623 5625 5626 5628 5629 5631 5633 5634 5636 5637 5639 5640 5642 5644 5646 5648 5649 5651 5653 5654 5655 5656 5657 5658 5659 5660 5660 5661 5661 5661 5661 5661 5661 5660 5659 5659 5658 5657 5657 5656
5609 5610 5612 5614 5615 5617 5618 5620 5621 5623 5624 5626 5628 5630 5631 5633 5635 5637 5639 5641 5642 5644 5646 5647 5649 5650 5651 5652 5653 5653 5654 5654 5655 5655 5656 5656 5655 5655 5654 5654 5653 5653 5652 5651